COSMOS 570

Satellite information

Favourite Embed

Satellite Type and Status

PAYLOADIN ORBIT

Key statistics

Satellite COSMOS 570 at a glance.

Uptime

18962

Days in orbit

Revolutions

≈ 12.6

Per day

Orbit

LEO

Low Earth Orbit

Inclination

74.0

Latest

Satellite identification and parameters

Extended collection of information and parameters for COSMOS 570.

Object identification

Identified? True

Debris? False

Object name: COSMOS 570

International designator: 1973-037G

Object number (NORAD): 6681

Object ID (CCSDS): 6681

Country: COMMONWEALTH OF INDEPENDENT STATES (CIS)

Current information (Y/N): Y

RCS size: MEDIUM

Orbital parameters

Period: 113.967 minutes

Inclination: 74.0191 deg

SMA: 7786.569 km

Apoapsis: 1479.736 km

Periapsis: 1337.132 km

RAAN: 211.8961 deg

Eccentricy: 0.009157

Argument of periapsis: 68.5295 deg

Mean anomaly: 43.7874 deg

Mean motion: 12.63524164 rev/day

Mean motion (dot): -0.00000022 rev/day2

B* drag term: -0.000032268 1/REarth

Two-line elements (TLE)

Creation date: May 8, 2025, 3:01 a.m.

Reference frame: TEME

Reference center: EARTH

Epoch: May 7, 2025, 3:56 p.m. UTC

TLE line 0: 0 COSMOS 570

TLE line 1: 1 06681U 73037G 25127.66429575 -.00000022 00000-0 -32268-4 0 9993

TLE line 2: 2 06681 74.0191 211.8961 0091570 68.5295 43.7874 12.63524164394429

Live tracking on map

Real-time ground track for satellite COSMOS 570.

In-orbit conjunctions

A list of the most updated potential collisions computed for object COSMOS 570.

Target Orbit TCA Probability of collision Miss distance Type
COSMOS 1798 LEO 2024-12-31 10:40:31 0.0002279764 130.0 (m) PAYLOAD

Associated space launch

Military communications satellites

COSMOS 570 was lifted into orbit during the mission ‘Kosmos-3M | Strela-1M 41-48’, on board a Kosmos-3M space rocket.

The launch took place on June 8, 1973, 3:50 p.m. from 132/1 (132L).

For more information about the launch, click the button.

Launch to space Kosmos-3M | Strela-1M 41-48
Kosmos-3M | Strela-1M 41-48

Agency: N/A

Status: Launch Successful

Launch date: June 8, 1973, 3:50 p.m. UTC

Rocket: Kosmos-3M

Launch pad: 132/1 (132L)

Location: Plesetsk Cosmodrome, Russian Federation

...

Latest news about this satellite

There are no fresh news available about this satellite. Check back as we update our databases every day.


Newsletter sign-up

Weekly statistics, charts and insights to help you stay on top of the space industry.